GFSMW_con_3kmhel_006.txt.gz
Helicity
74 79 106 113 116 105 101 81 75 66 28 36 47 27 25 49 62 98 106 100 111 121 129 131 124 124 145 163 147 144 132 145 203 127 139 85 68 132 101 122 129 108 147
109 106 101 109 100 68 50 42 55 41 38 41 40 15 27 70 113 119 122 131 140 162 157 156 150 166 144 143 150 140 134 135 178 108 100 123 132 109 248 225 154 153 182
110 102 68 68 55 41 37 54 78 64 60 36 26 40 85 103 118 143 164 186 174 171 151 137 134 131 121 132 167 159 140 148 141 189 140 181 219 227 152 166 161 182 147
143 122 72 82 65 60 79 122 125 105 73 68 115 136 119 144 138 150 167 151 144 131 124 122 123 124 126 137 149 161 153 172 200 187 181 163 159 202 218 184 173 163 145
129 76 106 58 61 101 133 132 156 155 153 157 138 148 137 129 135 153 141 118 111 105 106 108 118 122 140 166 172 185 204 192 200 211 185 178 163 144 148 161 125 116 94
149 139 100 81 92 130 136 137 178 195 186 172 179 162 143 140 172 174 135 125 110 97 90 102 113 128 157 187 206 215 203 179 144 87 144 135 146 130 129 109 91 77 66
153 117 94 79 125 136 173 185 200 224 208 187 163 138 151 138 149 131 109 94 97 97 93 96 104 137 188 250 261 238 116 91 142 140 132 120 109 98 94 91 77 67 51
117 94 87 97 151 193 223 206 198 215 239 215 176 109 122 143 121 87 84 82 92 90 83 83 101 165 199 267 203 81 124 145 113 103 96 83 70 69 80 80 78 62 56
119 117 131 132 191 257 264 232 245 272 289 254 138 182 151 108 60 52 77 95 87 84 87 88 109 168 185 119 108 139 133 127 92 75 62 70 67 76 77 82 93 95 65
155 164 177 202 234 302 305 268 266 223 226 143 103 133 117 76 74 91 88 77 80 82 83 90 121 158 120 121 129 112 116 104 70 64 79 68 67 74 78 77 103 120 129
165 185 220 255 298 340 319 297 220 191 74 102 89 138 110 105 103 84 77 74 67 74 73 90 126 102 109 88 81 102 92 74 61 66 72 69 61 71 80 92 109 122 121
180 226 276 324 370 357 324 273 169 109 128 124 156 131 132 115 95 80 67 71 64 73 78 90 97 80 83 71 101 87 65 76 84 75 71 68 73 63 68 90 103 121 121
236 256 300 385 379 340 281 203 100 131 134 171 144 137 106 93 90 78 78 76 75 74 74 81 102 93 92 92 91 80 70 101 100 89 67 59 52 55 76 89 110 138 156
260 268 300 364 350 268 218 150 144 153 184 144 118 102 87 94 90 90 84 88 88 94 100 88 87 105 97 101 106 112 99 121 110 81 69 64 64 77 97 101 111 130 134
260 268 299 305 245 217 231 176 162 192 149 120 95 88 87 90 103 103 105 105 94 96 110 127 133 113 111 124 104 95 76 121 85 68 77 83 123 100 90 113 108 105 85
220 239 204 195 209 222 206 187 196 163 138 105 79 85 97 106 113 120 122 99 94 107 105 100 98 112 135 166 135 126 79 78 70 82 80 80 89 115 74 59 67 54 70
170 168 183 179 195 210 198 190 201 170 123 91 87 95 109 111 119 132 118 120 109 109 102 89 84 104 139 140 128 94 70 76 85 80 77 76 85 61 82 73 36 44 54
119 162 182 180 176 193 210 203 179 139 110 101 101 112 108 116 120 128 123 128 115 108 111 103 99 108 183 139 119 78 64 74 79 77 69 70 62 86 89 51 31 33 42
117 166 183 193 212 243 225 207 137 119 109 118 118 99 115 116 124 130 128 119 128 109 113 115 110 124 180 151 120 71 78 79 67 67 63 69 48 79 46 33 25 23 30
141 199 235 276 301 288 352 169 160 144 131 131 117 117 115 127 130 129 125 125 138 132 139 118 121 177 163 159 121 85 83 77 61 58 58 81 73 37 25 33 28 27 27
165 262 313 333 310 338 218 232 228 149 129 120 106 102 113 131 131 130 129 132 140 164 160 131 127 140 137 143 123 98 70 67 64 62 58 58 58 25 19 21 30 31 6
255 328 409 480 411 300 170 248 173 123 108 102 103 98 124 145 142 125 120 151 145 166 151 122 113 123 125 129 132 91 65 67 64 60 57 46 27 19 25 29 31 -3 34
368 492 509 464 332 359 184 153 101 105 101 97 89 103 113 118 126 124 125 151 149 139 122 105 92 80 126 102 112 77 62 58 69 64 43 23 27 31 43 79 34 -2 29
423 512 610 563 575 358 63 62 79 84 81 76 84 103 115 140 112 117 124 129 143 118 106 87 73 72 93 95 79 71 68 84 66 68 45 41 54 55 63 57 53 17 11
615 692 643 443 344 120 76 62 58 67 64 80 87 85 103 100 93 82 96 127 94 105 90 85 82 82 76 76 91 77 73 75 79 59 45 44 45 47 52 55 51 12 -5
706 554 326 214 72 47 36 41 61 64 75 78 76 88 91 95 85 87 87 110 83 125 112 103 105 78 68 91 86 91 76 60 67 52 38 43 45 44 46 50 44 28 -11

GFSMW_con_3kmhel_009.txt.gz
Helicity
72 55 36 72 94 115 91 64 72 55 47 68 72 62 56 56 51 71 77 80 99 94 85 110 113 113 124 136 117 117 129 113 110 144 118 114 30 92 86 80 158 211 169
84 97 108 95 110 108 94 63 82 68 77 67 85 70 64 85 96 97 88 122 121 132 114 143 120 147 135 117 110 139 146 114 113 155 170 142 130 123 252 241 207 137 108
102 122 117 123 141 124 90 76 82 115 126 95 63 86 97 64 69 107 123 162 119 118 125 128 128 120 103 111 137 131 185 145 164 134 188 178 217 202 142 158 170 182 169
117 133 127 109 90 92 60 77 115 135 94 113 156 164 171 191 158 123 164 120 152 126 109 104 98 106 108 112 118 140 280 161 184 170 183 224 215 235 242 176 101 81 94
133 143 137 112 87 84 76 141 131 130 152 201 170 194 194 149 126 148 132 159 169 128 112 114 125 134 123 127 153 197 195 201 199 241 218 221 199 181 203 223 137 81 58
166 196 187 158 153 120 142 150 141 165 196 232 260 257 221 164 146 186 169 167 107 100 113 123 114 107 110 117 156 267 243 308 231 184 218 193 193 165 160 134 101 76 42
187 235 263 163 132 143 149 169 217 207 224 267 298 291 217 173 159 153 167 115 100 110 127 110 105 106 119 209 295 298 234 153 184 174 165 132 112 90 72 68 65 62 30
170 195 173 139 145 153 173 203 219 249 285 316 348 314 174 227 165 177 124 98 111 125 112 99 89 97 170 216 192 103 80 71 87 205 114 97 68 62 67 71 80 57 45
172 159 151 159 153 156 195 228 244 302 331 321 250 200 142 108 175 120 94 119 116 101 103 75 81 195 118 109 69 123 82 101 147 109 73 80 75 74 60 66 55 80 76
152 145 153 188 186 152 213 256 305 338 321 263 221 106 102 135 130 118 126 111 92 80 83 80 78 126 132 106 81 80 107 83 115 113 78 70 83 78 67 55 59 77 84
137 145 207 206 207 215 254 297 348 396 280 215 183 118 108 147 111 124 113 101 79 74 83 97 99 99 111 63 77 87 53 81 115 97 74 83 91 91 79 72 66 65 70
119 143 206 220 232 263 306 332 429 368 239 219 145 91 161 126 128 122 107 95 66 80 88 101 107 84 87 79 101 70 64 62 71 64 100 124 87 65 58 66 63 84 86
149 187 241 240 253 296 328 426 411 326 233 160 77 149 160 129 117 106 102 82 87 84 83 93 100 107 120 94 62 58 69 68 98 120 142 132 74 76 81 95 102 105 105
175 205 268 263 270 306 357 411 400 322 184 101 133 210 165 120 114 102 98 102 90 86 94 102 132 97 106 79 69 76 88 95 77 93 119 96 79 100 136 103 96 113 133
200 235 279 263 284 311 339 369 376 291 161 131 175 188 147 100 81 107 97 111 104 93 87 131 105 106 109 161 150 90 80 97 90 79 85 84 145 119 107 82 87 99 103
160 184 188 213 246 272 268 310 342 241 173 174 175 158 118 82 98 104 98 92 93 118 102 127 124 121 96 278 182 117 87 74 83 92 92 81 86 127 88 42 54 55 58
142 151 159 157 177 213 249 305 283 252 228 174 154 108 82 83 93 77 81 93 131 131 111 131 107 136 158 232 176 119 84 77 85 86 80 78 84 89 106 105 61 43 40
101 99 122 176 206 215 301 276 279 289 220 288 203 97 92 75 71 81 81 111 125 128 145 121 123 122 274 263 172 110 70 89 90 86 78 73 87 148 97 68 47 38 29
72 107 151 173 197 266 276 277 267 324 353 250 94 86 76 82 76 82 95 113 125 119 136 111 147 130 228 249 172 101 86 92 88 80 71 98 70 142 81 48 44 30 25
88 104 127 170 216 270 297 305 475 416 313 168 87 78 73 76 69 85 98 105 120 114 131 155 167 177 193 240 163 104 92 91 84 66 79 125 117 97 53 48 49 41 27
113 148 167 216 240 340 358 439 366 343 202 165 73 64 74 66 74 83 99 101 107 119 197 235 162 141 123 198 162 117 89 89 80 76 81 97 114 58 34 38 56 60 45
138 242 267 297 327 501 561 646 678 278 125 69 79 60 71 86 89 86 78 80 95 164 179 219 132 123 109 148 148 120 87 83 70 72 78 72 52 27 27 31 52 46 41
257 283 453 638 721 650 695 631 537 227 122 83 51 56 78 90 88 81 72 88 117 180 165 157 137 80 88 134 199 140 96 66 70 74 65 40 31 29 35 55 56 48 45
338 410 522 527 697 768 576 281 200 122 60 35 39 67 76 98 72 76 72 98 109 133 166 137 115 69 90 95 196 146 93 66 74 68 68 43 52 51 62 51 55 65 49
476 517 538 577 611 536 453 223 84 42 27 34 51 77 89 78 69 85 76 80 99 150 120 123 106 117 120 80 113 133 106 103 123 103 61 46 49 44 38 42 49 53 51
439 494 519 537 329 188 119 48 21 20 32 52 74 83 90 86 102 101 91 71 77 87 100 123 141 142 120 121 85 91 91 102 99 82 57 47 54 53 43 38 44 51 52

GFSMW_con_3kmhel_012.txt.gz
Helicity
75 107 63 110 215 217 136 114 124 74 25 88 65 55 70 104 107 82 68 91 93 99 71 128 153 170 191 183 160 147 170 174 164 156 154 173 174 160 139 213 236 256 257
109 123 80 160 188 221 137 104 105 53 18 126 187 147 188 169 117 50 51 105 112 142 181 174 150 157 156 137 145 159 157 191 217 188 166 173 189 166 259 169 134 134 120
231 152 140 185 181 240 233 134 133 39 150 232 168 188 158 98 82 108 130 157 137 132 137 155 159 151 127 140 141 143 156 237 245 189 223 226 281 282 200 184 166 187 177
227 185 172 177 266 278 232 134 92 232 180 150 232 243 281 357 269 264 221 180 218 197 184 184 175 144 157 168 163 174 202 238 271 265 284 291 331 347 304 157 211 189 216
219 222 147 242 297 235 138 170 315 215 169 272 249 307 326 374 330 272 202 152 166 196 176 168 140 128 139 147 157 174 302 336 347 343 343 323 271 261 262 251 199 152 99
260 201 298 206 143 142 252 314 301 222 247 348 422 455 428 435 346 253 230 153 169 168 165 154 124 130 144 166 220 307 351 353 325 265 296 328 311 233 221 209 152 107 84
166 147 228 137 304 395 325 304 292 304 298 332 372 393 367 324 305 250 207 131 175 159 155 130 142 148 157 213 218 255 282 229 214 210 269 254 191 207 158 155 109 123 89
183 213 276 409 373 309 257 229 326 314 326 366 381 344 307 279 295 218 201 152 196 147 126 143 135 124 201 186 231 229 210 170 136 175 170 185 158 148 136 122 125 106 84
157 169 264 332 324 231 199 236 309 342 377 374 399 343 284 344 273 197 195 212 166 118 148 143 120 112 200 215 193 176 174 166 143 233 172 132 142 137 137 137 128 140 96
135 158 245 293 312 239 234 242 273 407 407 439 382 324 294 208 195 165 205 190 140 128 124 123 116 116 167 201 181 174 163 178 155 117 130 239 217 126 105 167 132 131 129
167 189 211 256 298 315 301 275 282 467 467 484 372 353 257 183 154 159 205 169 133 107 110 112 125 129 133 133 157 161 121 181 118 86 123 125 80 100 135 145 123 123 111
261 238 234 231 375 410 353 322 335 454 525 450 400 352 249 158 142 174 199 168 123 111 106 110 110 89 106 206 154 151 137 157 190 119 97 139 179 161 142 168 158 165 148
244 227 284 361 482 454 391 401 373 435 522 378 427 306 231 163 151 175 161 136 118 117 111 107 73 101 171 159 99 108 187 164 143 101 100 81 111 142 162 145 117 93 104
188 202 260 416 514 492 427 405 369 457 411 465 311 246 217 167 193 179 135 114 117 130 100 76 60 155 138 131 142 188 213 160 164 142 132 116 149 170 145 109 101 105 111
135 161 224 311 444 532 473 422 438 462 464 426 248 245 274 283 206 136 112 111 148 104 58 39 73 168 168 136 229 216 173 163 151 137 138 145 156 133 161 103 99 113 97
38 139 211 296 413 447 447 423 428 450 458 305 299 348 354 293 319 214 131 122 95 66 110 83 88 152 224 241 246 204 172 128 122 133 125 139 115 172 113 107 136 90 113
96 105 160 218 282 320 383 399 428 470 475 340 359 318 413 421 165 67 72 64 76 115 139 124 150 178 315 291 261 212 159 126 118 123 136 129 120 177 159 141 103 73 45
127 128 136 151 190 258 332 385 410 496 465 373 356 570 411 261 53 86 88 83 123 146 166 169 167 225 305 287 269 206 150 134 129 143 121 122 143 169 142 105 78 68 63
144 115 119 164 195 234 264 372 455 517 429 480 543 418 106 179 97 87 70 103 116 146 167 175 213 340 338 264 237 176 169 144 130 122 106 111 127 189 140 88 69 60 63
102 94 110 153 187 215 307 445 523 519 599 447 259 362 250 71 80 78 89 101 125 155 160 213 317 357 338 237 210 175 171 144 128 110 95 142 188 153 95 82 77 70 64
117 113 146 260 306 368 455 513 537 680 866 645 738 377 66 99 64 85 118 123 123 122 138 233 260 281 255 200 167 167 145 130 133 107 93 154 145 102 61 56 81 74 81
88 236 469 583 653 699 641 788 866 955 908 798 411 124 76 68 85 86 90 111 101 97 152 256 254 198 168 228 177 151 130 124 122 93 90 106 90 47 44 52 51 47 62
319 492 531 646 744 866 871 944 981 870 455 277 160 90 57 81 82 123 90 99 101 90 191 249 220 182 133 220 226 183 162 112 105 89 80 74 52 39 62 44 85 77 88
540 480 486 494 531 577 652 709 574 220 129 57 27 27 43 65 91 99 99 104 106 146 188 222 222 207 151 165 246 212 189 129 111 74 72 91 77 82 92 67 65 106 104
551 539 438 366 362 314 254 163 97 55 23 10 -6 25 69 78 85 94 131 136 120 143 175 169 177 184 196 207 199 176 180 162 146 129 119 88 84 78 75 69 73 95 100
254 243 214 178 147 108 66 56 29 20 16 16 48 71 89 98 94 97 107 141 103 88 98 130 135 157 193 225 169 140 123 154 184 154 119 94 76 88 80 73 73 93 111

GFSMW_con_3kmhel_015.txt.gz
Helicity
131 125 227 248 204 129 184 212 164 126 172 126 148 112 197 157 142 133 126 118 100 110 134 139 154 158 142 127 125 126 125 117 153 165 150 145 193 255 225 245 250 206 174
196 161 300 334 321 236 197 213 146 93 94 96 97 106 140 127 143 155 117 105 125 132 134 133 170 163 133 124 126 132 128 153 187 172 180 183 180 267 228 203 175 229 188
238 177 245 372 331 324 247 176 97 67 96 252 224 245 264 245 215 223 196 159 178 171 158 193 191 167 143 139 140 146 171 169 187 262 256 255 278 199 231 147 254 237 184
286 347 251 373 384 302 247 221 122 203 240 295 325 354 324 399 373 356 249 245 223 204 202 183 195 158 122 138 152 175 196 216 253 268 298 273 255 272 321 319 230 194 185
358 432 329 381 334 316 315 241 344 389 301 302 351 409 512 521 483 416 361 275 246 189 231 196 193 141 131 136 183 220 228 227 221 234 250 267 296 328 354 356 252 179 144
356 346 364 368 314 310 360 404 488 475 390 399 396 490 550 523 471 399 338 264 188 223 240 207 165 130 149 160 174 182 204 212 223 223 247 292 348 310 344 311 216 185 116
299 411 421 360 298 290 416 501 563 451 444 466 491 502 483 459 413 326 281 252 219 240 225 188 165 138 138 161 161 149 148 178 206 215 211 235 276 246 254 215 194 162 106
273 318 295 248 397 465 490 459 449 455 439 426 423 419 433 399 352 308 267 220 199 195 217 203 178 151 132 183 155 130 142 154 159 147 149 222 221 215 233 173 208 132 109
282 242 276 370 530 533 505 464 463 423 412 391 401 417 422 401 367 323 295 268 241 157 170 156 152 134 166 165 161 133 125 140 151 182 199 250 229 242 195 206 176 164 141
246 243 327 473 548 522 450 410 411 429 401 380 383 384 389 367 334 311 298 257 227 201 141 146 132 121 139 152 156 154 145 159 160 202 240 203 161 141 151 199 178 166 172
357 331 400 451 479 452 382 331 407 457 432 432 402 378 345 311 277 265 212 209 211 186 158 139 110 109 102 118 138 146 146 220 228 233 200 152 146 143 114 144 196 175 155
370 384 446 496 497 511 496 455 471 504 505 500 412 342 306 272 257 266 265 192 155 159 138 105 91 85 105 123 111 110 143 192 179 157 135 133 159 125 150 160 158 138 103
333 356 455 537 563 583 620 610 639 623 651 626 520 422 334 287 277 281 237 191 167 164 117 99 75 72 97 93 95 140 219 220 186 170 142 121 135 149 127 121 122 90 82
256 280 332 484 626 665 673 635 672 739 688 630 579 490 338 330 295 261 200 181 165 146 107 64 47 21 85 113 166 204 214 219 207 176 177 171 157 128 121 122 98 96 95
138 99 273 455 570 623 646 583 589 628 633 600 546 425 304 336 340 304 293 199 166 121 88 72 30 53 148 183 187 192 200 198 167 161 164 150 116 117 125 142 111 97 97
111 87 131 327 466 528 569 540 490 568 608 586 515 434 488 561 559 470 404 263 128 79 92 101 114 116 174 230 236 225 206 196 171 144 149 139 146 177 186 174 149 119 95
183 133 89 90 228 334 297 335 428 541 590 571 564 649 693 728 755 615 333 105 33 85 109 151 168 190 273 285 304 273 223 201 157 154 155 133 182 190 161 143 115 80 65
191 166 125 106 108 149 217 356 482 555 592 635 757 806 819 712 658 580 189 97 79 93 114 133 164 266 300 277 295 300 246 205 170 162 148 139 160 150 145 127 87 66 68
219 202 138 112 142 206 271 432 537 633 783 860 816 829 703 724 680 346 164 71 60 82 132 148 179 318 311 289 302 256 220 199 150 134 134 124 148 145 155 117 76 64 69
159 175 215 266 200 224 400 563 688 808 805 907 821 781 876 783 353 94 62 53 82 97 126 166 208 257 273 247 261 232 209 163 138 129 140 131 152 155 127 97 87 76 68
186 200 277 353 433 533 815 897 946 935 846 825 888 866 609 320 101 83 66 36 40 106 127 150 191 212 216 188 175 177 166 140 135 126 107 120 141 117 70 62 112 109 85
282 279 319 392 497 578 701 742 868 839 956 935 816 478 143 138 99 77 24 63 88 113 114 150 198 206 201 184 162 152 139 138 151 122 99 97 116 76 53 66 67 60 76
323 310 292 321 349 382 422 521 503 526 532 510 264 128 181 88 57 21 67 93 103 124 111 182 208 213 196 215 193 165 154 147 179 145 92 62 73 57 51 42 42 66 115
315 250 230 216 195 152 153 144 181 202 169 151 148 114 66 37 49 78 92 113 130 139 123 160 176 191 174 199 229 220 202 170 179 142 112 84 90 89 78 70 66 96 121
201 192 190 182 211 210 196 155 143 140 166 142 121 108 69 60 72 87 103 114 127 155 139 139 183 197 181 183 221 239 246 209 171 184 153 115 107 83 66 80 80 75 104
191 195 192 191 161 141 131 139 110 135 154 137 98 88 92 96 103 105 103 87 111 112 116 113 157 163 169 160 219 206 166 150 145 215 226 181 130 101 75 71 68 65 84